Location: Bastelaar
(51.0950°N, 3.8602°E)
Time: 02:41:23
(UTC+00:00)

ARIANE 6 FM1 Upper Stage - Pass Details

Date: 24 January 2026
Orbit: 522 x 609 km, 62.0° (Epoch: 13 February)

Event Time Altitude Azimuth Distance (km) Brightness Sun altitude
Rises 19:11:09 0° 237° (WSW) 2,697 7.0 -26.3°
Reaches altitude 10° 19:13:24 10° 241° (WSW) 1,795 6.0 -26.7°
Enters shadow 19:16:20 43° 267° (W) 763 3.7 -27.1°
